Regional Weather Roundup
Issued by NWS

Home | Current Version | Previous Version | Text Only | Print | Product List | Glossary Off
Versions: 1 2 3 4 5 6 7 8 9 10 11 12 13 14 15 16 17 18 19 20 21 22 23 24 25 26 27

000
ASUS45 KTFX 180010
RWRMT
MONTANA REGIONAL WEATHER ROUNDUP
NATIONAL WEATHER SERVICE GREAT FALLS MT
600 PM MDT THU AUG 17 2017

NOTE: "FAIR" INDICATES FEW OR NO CLOUDS BELOW 12000 FEET WITH NO
SIGNIFICANT WEATHER AND/OR OBSTRUCTIONS TO VISIBILITY.

MTZ001>007-043-180100-
WEST OF THE DIVIDE

CITY           SKY/WX    TMP DP  RH WIND       PRES   REMARKS
KALISPELL      SUNNY     83  44  25 S12       29.99F
MISSOULA       SUNNY     85  38  18 NW16      30.02F
BUTTE          SUNNY     78  34  20 NW8       30.15S
MULLAN PASS    SUNNY     68  38  33 VRB3      30.23F
ANACONDA         N/A     79  37  22 N9G21     30.11R
DEER LODGE       N/A     79  37  22 NW9       30.11F
EUREKA           N/A     84  39  20 MISG      29.98S
HAMILTON         N/A     81  43  26 NW7       30.06S
LIBBY            N/A     84  39  20 W8        29.99S
RONAN            N/A     85  41  21 W3        30.07F
$$

MTZ008-052>055-180100-
SOUTHWEST MONTANA

CITY           SKY/WX    TMP DP  RH WIND       PRES   REMARKS
BOZEMAN        SUNNY     81  41  24 N7        30.08S
DILLON         SUNNY     80  35  19 CALM      30.10S
W YELLOWSTONE  MOSUNNY   73  34  23 SW15G22   30.21S
ENNIS          SUNNY     81  32  17 NW10      30.17S
THREE FORKS      N/A     84  36  18 SW1       30.05S
$$

MTZ009-010-012-014-046-048-049-054-180100-
EAST SLOPES AND CENTRAL MONTANA

CITY           SKY/WX    TMP DP  RH WIND       PRES   REMARKS
CUT BANK       MOSUNNY   81  34  18 W10       30.00F
GREAT FALLS    MOSUNNY   82  35  18 CALM      30.01F
MALMSTROM AFB  SUNNY     82  35  18 SW7       30.00F
HELENA         SUNNY     85  35  16 NW16G22   30.02S
AUGUSTA          N/A     81  33  17 NW6       30.04S
BOWMANS CRNR     N/A     80  33  18 SW9       30.02F
CHOTEAU          N/A     82  37  20 E8        30.03S
FAIRFIELD        N/A     81  34  17 W5        30.01S
POWER            N/A     81  34  18 W6        30.01F
RAYNESFORD       N/A     80  35  19 W6        30.03F
ULM              N/A     83  35  17 CALM      30.00F
$$

MTZ011-013-016-021-045-047-050-051-180100-
NORTH CENTRAL MONTANA

CITY           SKY/WX    TMP DP  RH WIND       PRES   REMARKS
HAVRE          SUNNY     84  39  20 NW10G22   29.94S
LEWISTOWN      SUNNY     80  35  19 NW14G20   30.04S
N BAR RANCH      N/A     79  32  18 NW15G24   30.07R
CHINOOK          N/A     84  39  20 W9        29.92S
DENTON           N/A     82  33  17 NW20G28   29.98S
GEYSER           N/A     80  33  18 NW14G22   30.03S
GRASS RANGE      N/A     81  31  16 NW20G25   29.98R
JUDITH GAP       N/A     78  35  21 N17       30.05F
WINIFRED       PTSUNNY   81  33  17 N14G24    30.00S
$$

MTZ017>020-022>027-061-062-180100-
NORTHEAST MONTANA

CITY           SKY/WX    TMP DP  RH WIND       PRES   REMARKS
GLASGOW        SUNNY     84  37  18 NW14      29.89F
JORDAN           N/A     87  35  15 N13G23    29.90S
SIDNEY         CLOUDY    82  50  32 N22G28    29.86R
WOLF POINT     SUNNY     84  43  23 NE8       29.89R
MALTA          MOSUNNY   84  41  21 SW6       29.90S
PLENTYWOOD       N/A     79  48  34 N15G25    29.88S
POPLAR           N/A     79  46  31 N5        29.89S
$$

MTZ028>42-056>058-180100-
SOUTHCENTRAL AND SOUTHEAST MONTANA

CITY           SKY/WX    TMP DP  RH WIND       PRES   REMARKS
BAKER          MOSUNNY   85  34  16 NW6       29.91F
BILLINGS       MOSUNNY   86  29  12 N18G32    29.97S
LIVINGSTON     SUNNY     82  36  19 W15       30.06S
MILES CITY     SUNNY     89  30  12 N10       29.88S
BIG TIMBER     SUNNY     81  34  18 NW13G18   30.08S
FORSYTH          N/A     88  34  14 NW9       29.90S
HARLOWTON      PTSUNNY   79  33  19 MISG      30.04S
LAUREL           N/A     86  34  15 W8        29.98R
$$

REGIONAL REPORTS...DAKOTAS

CITY           SKY/WX    TMP DP  RH WIND       PRES   REMARKS
WILLISTON      MOSUNNY   80  51  36 NW14      29.85R
MINOT          SUNNY     81  52  36 E10       29.81R
DICKINSON        N/A     77  47  34 W15       29.87R
BEACH          DRIZZLE   72  46  40 S5        29.96R
CROSBY           N/A     81  54  39 N10       29.85R
TIOGA            N/A     82  50  32 NW14      29.86R
WATFORD CITY     N/A     82  52  34 NW9G16    29.84R
BISMARCK       MOSUNNY   77  61  57 S7        29.83F
GRAND FORKS    MOSUNNY   80  61  52 NE5       29.82S
FARGO          SUNNY     77  60  55 N8        29.84S
BUFFALO SD       N/A     81  41  24 W16       29.87S
RAPID CITY     CLOUDY    76  46  34 NW17      30.00R
$$

REGIONAL REPORTS...WYOMING/IDAHO/WASHINGTON

CITY           SKY/WX    TMP DP  RH WIND       PRES   REMARKS
GILLETTE       PTSUNNY   75  41  29 VRB3      30.03F
SHERIDAN       SUNNY     81  40  23 VRB5      30.02S
BUFFALO WY     MOSUNNY   78  37  22 NW6       30.10R
CODY           SUNNY     75  47  36 NW5       30.10R
YELLOWSTONE LA   N/A     67  32  27 W9G17     30.32S
IDAHO FALLS    SUNNY     85  34  16 SW15      30.10F
SALMON         SUNNY     83  47  28 W3        30.04F
BOISE          SUNNY     87  40  19 VRB7      30.04F
SPOKANE        MOSUNNY   82  39  21 S9        30.05F
$$

REGIONAL REPORTS...ALBERTA

CITY           SKY/WX    TMP DP  RH WIND       PRES   REMARKS
EDMONTON       SUNNY     73  48  40 W5        29.91F
CALGARY        SUNNY     77  45  31 SE10      29.96F SMOKE
LETHBRIDGE     MOSUNNY   82  41  23 SE9       29.93F
MEDICINE HAT   MOSUNNY   81  41  24 S7        29.93S
$$

REGIONAL REPORTS...SASKATCHEWAN

CITY           SKY/WX    TMP DP  RH WIND       PRES   REMARKS
SWIFT CURRENT  SUNNY     75  41  29 NW9       29.95S
REGINA         CLOUDY    79  46  31 NW14G22   29.88F
SASKATOON      MOSUNNY   75  48  38 W15G22    29.88S
$$




USA.gov is the U.S. government's official web portal to all federal, state and local government web resources and services.